User: anonymous   Login
Location: Newark
(43.4306°N, 0.3089°E)
Time: 03:49:39
(UTC+00:00)
Language:

Courier 1B Rocket - Orbit

View from above orbital plane
View from above orbital plane
View from above satellite
View from above satellite

Ground track
Ground track

The orbit data is extracted from the following two-line orbital elements,

1    59U 60013B   19231.65933454  .00000115  00000-0  31671-4 0  9998
2    59  28.2509 333.5846 0189247 264.7900  93.1023 13.52969941906072
Epoch (UTC): 19 August 2019 15:49:26
Eccentricity: 0.0189247
inclination: 28.2509°
perigee height: 920 km
apogee height: 1202 km
right ascension of ascending node: 333.5846°
argument of perigee: 264.7900°
revolutions per day: 13.52969941
mean anomaly at epoch: 93.1023°
orbit number at epoch: 90607

The dashed part of the orbit path shows where the satellite is in the earth's shadow,  

DLR